FW4469 Weather Reports


Display with metric or nautical units.
time (UTC)temp
F
wind
direction
speed
MPH
gust
MPH
rain 1hr
in
rain 24hr
in
rain mn
in
humidity
%
barometer
mb
20260905191003 56 313 2.0 3.0 0.00 0.00 0.00 74 1025.3
20260905190217 57 315 3.0 4.0 0.00 0.00 0.00 72 1025.3
20260905185003 59 316 3.0 4.0 0.00 0.00 0.00 69 1025.1
20260905184008 60 318 3.0 5.0 0.00 0.00 0.00 65 1025.1
20260905183008 62 315 3.0 4.0 0.00 0.00 0.00 63 1025.1
20260905182008 63 309 4.0 6.0 0.00 0.00 0.00 59 1025.0
20260905181008 65 313 4.0 7.0 0.00 0.00 0.00 55 1025.0
20260905180009 67 306 4.0 7.0 0.00 0.00 0.00 54 1024.9
20260905175008 67 304 4.0 8.0 0.00 0.00 0.00 53 1024.9
20260905174003 68 305 4.0 7.0 0.00 0.00 0.00 52 1025.3
20260905173008 69 303 4.0 7.0 0.00 0.00 0.00 50 1025.1
20260905172223 68 310 4.0 8.0 0.00 0.00 0.00 52 1025.1
20260905171003 69 306 5.0 7.0 0.00 0.00 0.00 50 1024.9
20260905170003 69 308 4.0 9.0 0.00 0.00 0.00 49 1025.0
20260905165222 70 305 4.0 7.0 0.00 0.00 0.00 51 1024.7
20260905164005 68 306 5.0 9.0 0.00 0.00 0.00 50 1024.4
20260905163003 69 307 5.0 7.0 0.00 0.00 0.00 50 1024.6
20260905162008 69 308 5.0 8.0 0.00 0.00 0.00 51 1024.5
20260905161008 69 306 5.0 9.0 0.00 0.00 0.00 50 1024.8
20260905160008 68 311 5.0 8.0 0.00 0.00 0.00 52 1024.9
20260905155003 67 312 4.0 8.0 0.00 0.00 0.00 53 1024.9
20260905154008 67 312 4.0 8.0 0.00 0.00 0.00 52 1024.8
20260905153003 65 309 4.0 11.0 0.00 0.00 0.00 56 1024.8
20260905152008 64 312 4.0 8.0 0.00 0.00 0.00 56 1025.0
20260905151008 67 307 5.0 11.0 0.00 0.00 0.00 52 1025.0
20260905150003 68 307 5.0 9.0 0.00 0.00 0.00 53 1025.0
20260905145224 68 304 5.0 9.0 0.00 0.00 0.00 51 1024.9
20260905144223 67 304 5.0 9.0 0.00 0.00 0.00 53 1025.0
20260905143010 67 308 4.0 8.0 0.00 0.00 0.00 53 1025.1
20260905142217 65 308 4.0 8.0 0.00 0.00 0.00 56 1024.8
20260905141217 65 312 5.0 9.0 0.00 0.00 0.00 54 1025.0
20260905140008 67 309 4.0 10.0 0.00 0.00 0.00 51 1025.0
20260905135223 68 312 5.0 12.0 0.00 0.00 0.00 49 1024.9
20260905134003 68 310 4.0 10.0 0.00 0.00 0.00 50 1024.9
20260905133008 68 311 4.0 8.0 0.00 0.00 0.00 51 1024.9
20260905132223 68 315 5.0 10.0 0.00 0.00 0.00 52 1024.8
20260905131008 66 317 4.0 8.0 0.00 0.00 0.00 54 1024.7
20260905130008 63 320 4.0 8.0 0.00 0.00 0.00 60 1024.6
20260905125003 64 309 4.0 7.0 0.00 0.00 0.00 60 1024.6
20260905124008 64 316 4.0 10.0 0.00 0.00 0.00 58 1024.7
20260905123008 64 319 4.0 9.0 0.00 0.00 0.00 56 1024.5
20260905122008 65 315 4.0 8.0 0.00 0.00 0.00 55 1024.7
20260905121003 65 313 4.0 9.0 0.00 0.00 0.00 58 1024.4
20260905120004 64 317 4.0 9.0 0.00 0.00 0.00 59 1024.3
20260905115003 63 314 4.0 9.0 0.00 0.00 0.00 57 1024.5
20260905114003 64 313 4.0 9.0 0.00 0.00 0.00 61 1024.4
20260905113003 63 315 4.0 10.0 0.00 0.00 0.00 63 1024.3
20260905112003 62 314 4.0 10.0 0.00 0.00 0.00 67 1024.4
20260905111003 61 322 4.0 8.0 0.00 0.00 0.00 64 1024.7
20260905110006 63 320 5.0 11.0 0.00 0.00 0.00 61 1024.6
20260905105003 62 317 4.0 9.0 0.00 0.00 0.00 62 1024.6
20260905104003 60 320 4.0 9.0 0.00 0.00 0.00 65 1024.8
20260905103009 60 317 4.0 7.0 0.00 0.00 0.00 69 1024.8
20260905102003 59 319 4.0 8.0 0.00 0.00 0.00 70 1024.6
20260905101003 60 320 4.0 8.0 0.00 0.00 0.00 68 1024.6
20260905100218 61 321 4.0 9.0 0.00 0.00 0.00 65 1024.4
20260905095433 61 321 4.0 8.0 0.00 0.00 0.00 65 1024.4
20260905094011 60 320 4.0 8.0 0.00 0.00 0.00 70 1024.3
20260905093008 58 327 4.0 8.0 0.00 0.00 0.00 73 1024.1
20260905092224 59 318 4.0 9.0 0.00 0.00 0.00 73 1024.0
20260905091217 58 312 4.0 10.0 0.00 0.00 0.00 75 1023.9
20260905090223 58 328 4.0 10.0 0.00 0.00 0.00 79 1024.0
20260905085003 56 325 4.0 9.0 0.00 0.00 0.00 82 1023.7
20260905084008 56 312 3.0 8.0 0.00 0.00 0.00 82 1023.7
20260905083008 56 317 3.0 9.0 0.00 0.00 0.00 85 1023.4
20260905082008 55 326 3.0 9.0 0.00 0.00 0.00 87 1023.6
20260905081004 55 310 4.0 8.0 0.00 0.00 0.00 87 1023.4
20260905080008 54 326 4.0 8.0 0.00 0.00 0.00 90 1023.2
20260905075217 53 297 2.0 6.0 0.00 0.00 0.00 91 1023.4
20260905074223 53 320 2.0 6.0 0.00 0.00 0.00 92 1023.2
20260905073003 52 327 3.0 6.0 0.00 0.00 0.00 93 1022.9
20260905072009 52 329 2.0 6.0 0.00 0.00 0.00 94 1022.9
20260905071008 51 313 2.0 6.0 0.00 0.00 0.00 96 1022.6
20260905070008 51 318 3.0 8.0 0.00 0.00 0.00 97 1022.7
20260905065008 50 353 3.0 6.0 0.00 0.00 0.00 97 1022.4
20260905064003 50 330 3.0 6.0 0.00 0.00 0.00 96 1022.1
20260905063003 49 334 4.0 8.0 0.00 0.00 0.00 95 1022.1
20260905062003 49 322 3.0 8.0 0.00 0.00 0.00 95 1022.2
20260905061008 50 301 2.0 6.0 0.00 0.00 0.00 95 1022.0
20260905060008 50 322 2.0 6.0 0.00 0.01 0.00 95 1021.5
20260905055008 50 318 2.0 7.0 0.00 0.01 0.00 94 1021.7
20260905054003 50 318 3.0 7.0 0.00 0.02 0.00 93 1021.4
20260905053003 50 306 2.0 6.0 0.00 0.02 0.00 93 1021.6
20260905052005 51 319 3.0 9.0 0.00 0.04 0.00 93 1021.3
20260905051008 51 311 3.0 9.0 0.00 0.06 0.00 92 1021.0
20260905050004 51 331 4.0 8.0 0.00 0.07 0.00 92 1021.1
20260905045218 51 343 5.0 12.0 0.00 0.07 0.00 92 1020.8
20260905044003 51 300 4.0 11.0 0.00 0.07 0.00 92 1020.7
20260905043009 51 295 4.0 9.0 0.00 0.09 0.00 92 1020.7
20260905042003 51 321 3.0 9.0 0.00 0.09 0.00 92 1020.8
20260905041011 51 291 4.0 8.0 0.00 0.10 0.00 91 1020.8
20260905040008 51 340 6.0 14.0 0.00 0.11 0.00 91 1020.8
20260905035004 52 332 4.0 10.0 0.00 0.11 0.00 90 1020.7
20260905034217 52 314 4.0 8.0 0.00 0.11 0.00 90 1020.6
20260905033217 52 315 4.0 8.0 0.00 0.11 0.00 90 1020.6
20260905032008 52 294 3.0 7.0 0.00 0.11 0.00 89 1020.3
20260905031003 52 306 3.0 8.0 0.00 0.11 0.00 90 1020.5
20260905030003 52 329 3.0 6.0 0.00 0.11 0.00 90 1020.3
20260905025217 52 322 3.0 7.0 0.00 0.11 0.00 89 1020.2
20260905024217 52 314 3.0 8.0 0.00 0.12 0.00 89 1020.1
20260905023008 52 315 3.0 6.0 0.00 0.13 0.00 89 1020.0
20260905022003 52 317 2.0 5.0 0.00 0.15 0.00 89 1020.0
20260905021005 52 321 3.0 6.0 0.00 0.15 0.00 88 1020.0
20260905020003 52 316 3.0 7.0 0.00 0.18 0.00 87 1019.7
20260905015003 53 312 3.0 8.0 0.00 0.20 0.00 87 1019.5
20260905014008 53 320 4.0 8.0 0.00 0.20 0.00 88 1019.6
20260905013009 53 318 4.0 8.0 0.00 0.20 0.00 88 1019.5
20260905012004 53 323 3.0 8.0 0.00 0.20 0.00 88 1019.4
20260905011003 53 328 3.0 8.0 0.00 0.20 0.00 88 1019.3
20260905010004 53 308 3.0 8.0 0.00 0.20 0.00 89 1019.2
20260905005218 53 308 3.0 8.0 0.00 0.20 0.00 90 1019.4
20260905004008 53 315 3.0 8.0 0.00 0.20 0.00 92 1019.3
20260905003008 53 314 3.0 6.0 0.00 0.20 0.00 92 1019.3
20260905002003 53 316 3.0 6.0 0.00 0.20 0.00 92 1019.2
20260905001008 53 323 3.0 6.0 0.00 0.20 0.00 92 1019.0
20260905000003 53 318 3.0 6.0 0.00 0.20 0.00 92 1019.0
20260904235008 53 322 3.0 6.0 0.00 0.20 0.00 92 1018.9
20260904234008 54 313 3.0 6.0 0.00 0.20 0.00 92 1018.5
20260904233008 53 320 3.0 7.0 0.00 0.20 0.00 93 1018.5
20260904232008 53 313 3.0 7.0 0.00 0.20 0.00 92 1018.4
20260904231003 53 314 3.0 9.0 0.00 0.20 0.00 92 1018.4
20260904230008 53 316 3.0 8.0 0.00 0.20 0.00 92 1018.2
20260904225003 53 312 3.0 8.0 0.00 0.20 0.20 92 1018.3
20260904224003 53 314 3.0 8.0 0.00 0.20 0.20 91 1018.3
20260904223008 53 318 3.0 7.0 0.00 0.20 0.20 91 1018.2
20260904222003 54 321 3.0 7.0 0.00 0.20 0.20 90 1018.6
20260904221008 54 325 4.0 8.0 0.00 0.20 0.20 89 1018.5
20260904220003 54 326 4.0 8.0 0.00 0.20 0.20 88 1018.4
20260904215003 55 319 3.0 8.0 0.00 0.20 0.20 88 1018.5
20260904214217 55 313 3.0 9.0 0.00 0.20 0.20 88 1018.4
20260904213008 55 322 3.0 8.0 0.00 0.20 0.20 87 1018.0
20260904212013 55 315 4.0 9.0 0.00 0.20 0.20 87 1018.1
20260904211223 55 313 3.0 8.0 0.00 0.20 0.20 87 1018.3
20260904210004 55 318 3.0 10.0 0.00 0.20 0.20 87 1018.3
20260904205008 55 323 3.0 8.0 0.00 0.20 0.20 88 1018.3
20260904204008 55 321 3.0 8.0 0.00 0.20 0.20 87 1018.1
20260904203008 55 320 4.0 9.0 0.00 0.20 0.20 87 1018.1
20260904202223 55 316 4.0 10.0 0.00 0.20 0.20 86 1018.1
20260904201008 55 328 4.0 8.0 0.00 0.20 0.20 86 1017.8
20260904200008 55 319 3.0 7.0 0.00 0.20 0.20 85 1017.7
20260904195008 55 325 4.0 10.0 0.00 0.20 0.20 85 1017.4
20260904194218 56 324 4.0 11.0 0.00 0.20 0.20 84 1017.3
20260904193008 56 328 4.0 9.0 0.00 0.20 0.20 84 1017.2
20260904192008 56 318 4.0 14.0 0.00 0.20 0.20 84 1017.0